Theta_e
320 322 322 321 320 318 315 314 313 312 312 311 309 308 307 305 303 301 299 298 298 298 297 297 297 297 297 297 296 296 295 296 296 296 294 293 292 291
322 321 319 319 318 316 314 313 313 312 308 308 308 307 306 304 301 299 298 297 296 296 296 297 297 297 297 297 297 296 296 296 295 295 294 293 292 291
321 319 317 315 317 315 312 312 311 310 308 306 306 305 304 302 300 297 297 295 295 294 293 293 294 295 295 295 295 295 296 295 295 294 294 293 292 291
321 319 317 316 316 314 312 311 309 307 307 306 304 302 301 299 297 295 294 292 291 290 289 289 289 289 291 293 294 294 294 294 294 294 293 293 292 290
321 320 318 316 315 314 311 310 307 306 304 303 302 300 298 295 293 291 289 288 288 287 287 287 286 286 285 285 286 291 293 292 292 293 292 292 291 289
320 318 316 314 313 311 309 307 304 304 301 299 297 295 293 291 289 287 288 288 288 287 286 285 286 285 285 284 285 285 290 289 291 291 292 291 290 287
317 315 313 312 311 307 306 304 302 301 298 295 293 290 289 287 287 287 286 286 286 286 285 285 285 285 285 285 283 287 289 289 289 291 291 291 289 287
316 313 311 310 307 304 303 301 299 296 293 291 289 287 287 286 285 285 285 284 285 285 284 285 286 286 285 284 284 283 289 289 289 289 290 288 287 286
311 311 308 306 303 301 301 298 294 291 289 287 286 286 286 285 284 284 284 283 283 283 283 285 286 285 285 284 286 285 286 287 288 290 287 287 286 285
309 306 304 303 301 300 296 291 290 287 285 286 285 285 284 283 283 282 282 282 282 283 284 285 285 286 285 284 286 287 288 288 289 287 286 286 285 285
304 303 302 300 297 293 291 288 286 285 285 285 284 284 283 282 281 281 281 282 282 283 284 284 285 285 285 285 286 288 289 288 286 286 286 285 285 285
302 301 298 294 291 289 286 285 285 284 284 284 283 282 282 281 281 280 280 281 282 283 283 284 284 284 285 285 285 288 288 286 285 286 285 285 284 284
299 295 292 290 286 285 284 284 284 284 283 283 282 282 281 281 280 280 280 280 282 283 283 284 285 284 285 285 285 286 287 286 286 285 285 284 284 283
293 291 287 285 284 284 283 283 282 282 281 281 281 280 280 280 280 279 279 279 280 282 284 286 285 285 285 284 285 286 286 285 284 284 284 283 282 281
290 287 284 283 283 282 282 281 281 280 280 280 279 279 279 279 278 278 278 278 279 281 284 286 286 285 285 285 285 286 285 284 284 284 283 282 281 282
286 284 282 282 281 281 280 280 280 279 279 278 278 278 278 277 277 277 277 278 279 280 283 285 286 285 285 285 285 285 284 284 284 283 282 282 282 282
283 281 281 280 280 280 280 279 278 278 278 277 277 277 276 276 277 277 277 277 277 279 281 284 285 285 286 285 285 284 284 284 284 283 282 282 283 283
280 281 280 280 279 279 278 277 277 277 276 276 276 276 275 275 276 276 275 275 276 277 279 282 284 284 285 285 285 285 284 284 284 283 283 282 282 282
282 281 279 278 277 277 277 277 276 276 275 275 274 274 274 274 274 274 274 274 275 277 278 279 281 282 283 284 285 285 285 285 284 283 283 282 282 281
281 279 278 278 277 277 276 276 275 275 274 273 273 273 273 273 273 273 273 273 274 275 277 278 279 280 281 283 283 285 285 285 284 283 282 282 282 282
278 278 277 276 275 275 274 274 273 273 272 272 272 272 272 272 272 272 272 272 273 274 275 277 278 278 280 281 283 284 284 285 284 283 282 282 282 282
276 275 275 274 273 273 272 272 272 271 270 270 270 270 271 271 271 271 271 271 272 273 274 275 277 278 280 280 283 284 284 284 283 283 282 282 282 282
274 273 273 272 271 271 270 270 270 269 269 269 269 270 270 270 270 270 270 271 271 272 273 275 276 277 279 280 283 284 284 283 283 282 282 282 282 281
Wind_Speed
30 30 29 27 24 22 20 20 20 21 22 21 19 21 23 24 22 22 24 23 26 26 23 24 27 29 31 34 36 37 38 42 42 37 32 28 27 24
38 27 25 25 21 22 23 21 21 22 21 21 21 24 26 25 23 22 24 28 29 28 28 29 31 33 35 36 38 40 42 42 47 42 40 32 30 23
29 24 23 20 23 24 23 23 23 23 23 22 24 26 30 28 26 27 29 29 31 32 33 35 37 38 40 41 42 42 42 43 43 47 37 40 34 24
29 26 23 22 26 25 26 25 23 21 23 24 25 27 28 26 27 30 31 33 36 38 40 41 43 44 45 45 44 43 41 41 43 43 45 44 35 24
28 28 27 25 23 25 26 26 24 21 22 25 26 27 26 27 30 32 35 36 37 38 38 39 39 39 41 44 45 43 40 37 41 39 43 50 38 25
30 26 27 24 23 26 25 24 21 21 22 22 22 24 26 28 32 35 37 37 39 37 38 35 35 34 33 34 37 39 39 38 37 36 43 40 33 22
29 25 25 25 26 26 23 21 21 21 20 21 23 26 27 28 31 33 37 39 39 39 36 34 34 33 34 34 31 33 32 28 29 30 35 34 21 17
29 27 25 25 26 24 21 19 20 19 20 21 23 25 26 28 30 31 34 37 40 37 37 38 32 34 35 33 28 24 24 23 24 25 24 15 15 19
27 25 24 24 22 19 18 20 20 20 21 21 22 23 25 26 29 30 31 33 35 38 36 40 33 36 34 30 21 18 22 21 25 28 17 15 17 22
24 23 22 20 20 19 19 19 20 19 19 21 22 22 24 24 25 27 29 32 35 33 29 36 33 34 35 30 21 20 22 19 13 12 13 16 19 20
22 21 20 20 20 19 19 19 18 19 20 20 22 22 23 21 22 25 26 28 36 34 31 31 32 35 36 34 22 22 10 13 14 14 16 18 19 20
19 19 19 19 19 19 19 18 18 19 20 20 20 19 21 21 20 21 24 27 30 35 23 27 34 32 30 31 20 17 10 13 15 17 17 18 19 22
19 18 17 18 18 19 19 18 19 20 20 22 22 22 22 21 21 21 21 23 27 32 30 30 34 30 29 29 25 17 15 16 16 14 17 19 21 24
16 16 16 17 18 19 20 20 20 20 20 21 22 22 23 22 22 22 21 21 23 27 28 23 30 29 27 24 23 16 12 12 13 16 19 23 23 21
14 15 15 17 18 18 18 17 19 20 21 22 22 23 23 24 24 24 23 23 24 22 21 20 20 21 23 26 25 20 13 13 15 18 20 18 14 12
14 14 15 15 16 16 16 19 20 20 21 21 22 23 24 24 24 24 25 25 27 24 18 16 14 17 23 21 19 12 11 12 11 12 12 11 11 13
14 14 14 14 15 17 20 19 19 20 21 21 22 24 25 25 25 24 23 24 24 26 23 17 13 11 16 16 16 15 16 16 13 14 16 16 13 14
14 14 15 16 18 19 19 19 19 21 21 23 24 25 26 27 26 25 23 23 25 24 23 21 19 15 14 22 22 18 18 17 14 16 17 17 16 13
15 18 17 18 17 17 18 20 21 22 23 24 25 24 25 26 26 26 24 24 24 23 22 21 21 16 15 23 20 17 19 17 16 18 17 16 14 11
16 16 17 18 19 19 21 21 22 24 23 24 25 24 23 25 26 25 23 24 24 23 23 20 18 17 12 11 16 17 15 16 16 17 16 14 12 11
14 15 16 17 18 20 21 22 23 23 24 24 23 23 22 23 24 23 23 22 23 23 24 22 18 18 19 19 20 20 17 17 17 17 14 13 11 10
14 14 16 18 19 20 22 23 24 24 24 23 23 22 21 21 22 22 21 22 21 22 25 23 19 17 16 18 22 20 16 15 17 16 15 13 10 5
14 15 16 18 20 21 23 25 26 26 24 23 22 22 21 21 20 21 21 21 21 22 21 21 20 17 17 16 17 18 15 16 17 15 14 14 12 10
Wind_Direction
279 285 263 259 267 265 251 254 252 258 262 273 268 270 280 286 287 290 297 294 294 296 290 286 285 284 283 281 280 280 279 275 267 264 259 263 275 277
272 266 263 260 259 253 254 249 257 259 260 270 273 282 285 287 286 286 289 294 296 295 290 284 281 280 281 281 280 279 280 278 272 256 273 256 257 264
253 258 254 255 257 252 251 247 250 256 265 272 277 280 284 287 289 290 295 298 299 298 295 292 288 286 284 282 279 281 280 279 275 271 260 264 259 250
246 246 251 258 254 257 249 246 251 258 265 273 283 287 285 290 294 298 300 301 301 300 298 295 292 289 285 281 279 276 277 279 271 279 270 260 255 247
241 250 254 255 250 251 253 246 248 255 267 279 282 283 289 294 299 300 303 304 304 303 302 300 299 296 291 286 280 276 275 280 276 274 268 259 246 246
242 240 249 243 244 243 242 246 251 263 274 278 280 286 295 301 304 309 308 307 307 310 308 308 308 304 305 298 289 278 273 277 275 274 272 257 254 245
236 234 233 242 244 242 243 250 261 270 270 276 285 294 301 306 309 311 309 311 311 313 316 317 314 315 313 308 295 277 275 274 270 272 270 260 241 251
232 229 230 242 238 234 240 258 267 268 276 283 291 298 304 307 308 308 311 314 312 315 314 315 318 319 323 318 307 278 274 268 273 277 257 245 247 251
226 228 232 230 232 244 260 265 268 276 283 289 294 299 303 305 306 309 306 306 309 312 316 311 319 317 325 319 315 299 280 285 287 260 216 240 250 257
224 227 229 234 242 255 262 267 276 282 286 291 295 298 299 302 304 306 307 307 306 310 314 303 316 316 322 315 308 315 294 290 241 220 229 254 254 253
218 225 232 241 251 258 266 271 275 279 285 288 291 295 300 305 304 301 303 300 305 310 309 305 309 311 316 317 312 316 269 211 213 230 251 258 253 258
224 233 242 249 258 265 269 274 277 282 285 288 292 297 300 301 300 298 300 297 300 305 312 303 301 305 311 313 311 325 213 207 223 247 252 250 255 267
231 238 247 257 264 270 276 280 283 286 291 294 299 302 302 301 299 297 294 293 288 286 299 301 300 296 291 296 306 294 224 227 245 244 247 256 264 272
236 246 255 264 271 278 282 284 287 295 298 301 304 303 303 303 301 299 297 293 285 286 299 302 289 282 279 281 289 282 230 219 226 241 256 268 275 271
252 260 263 267 272 276 279 289 296 298 300 300 302 305 305 305 305 304 301 298 296 288 293 281 304 276 271 271 269 264 218 215 236 258 270 271 267 268
258 261 263 266 275 281 284 293 292 293 297 301 303 303 304 305 306 307 306 305 303 300 281 294 299 286 262 264 249 230 226 225 259 268 256 270 276 270
263 268 272 274 276 283 285 284 289 295 297 298 302 303 304 305 306 307 306 306 305 306 299 286 281 304 257 240 234 229 240 245 265 259 257 267 275 273
264 273 275 275 276 276 280 287 292 292 298 300 301 301 302 304 305 307 307 304 302 303 300 296 291 288 274 241 237 238 244 250 256 246 251 261 269 270
274 275 268 266 269 277 286 288 291 293 295 297 296 300 301 302 304 305 305 305 302 300 300 300 298 295 284 262 252 247 251 251 250 238 247 256 272 275
271 268 269 272 276 279 282 285 287 292 296 296 296 298 300 300 302 304 304 303 302 299 296 296 298 293 284 261 275 268 255 251 237 232 243 246 267 271
287 288 285 282 282 285 289 292 295 297 295 292 293 295 297 297 299 301 301 301 300 299 295 297 297 293 280 268 262 259 256 255 230 227 234 245 249 262
290 286 284 286 289 292 295 298 299 296 293 291 292 294 298 297 298 301 303 301 299 298 299 301 302 295 284 263 255 260 253 249 220 221 230 237 236 234
288 287 287 288 291 296 299 300 299 298 295 294 293 295 296 296 297 300 304 304 304 302 300 300 303 299 291 269 247 254 261 208 205 220 224 219 231 234